Location: Austin
(30.3000°N, 97.7500°W)
Time: 03:47:20
(UTC-05:00)

Cosmos 1371 Rocket - Pass Details

Date: 18 March 2023
Orbit: 754 x 788 km, 74.0° (Epoch: 01 April)

Event Time Altitude Azimuth Distance (km) Brightness Sun altitude
Rises 20:36:01 0° 188° (S) 3,255 7.3 -12.6°
Reaches altitude 10° 20:38:24 10° 186° (S) 2,327 6.5 -13.2°
Maximum altitude 20:43:39 69° 104° (ESE) 831 3.9 -14.3°
Drops below altitude 10° 20:48:53 10° 22° (NNE) 2,318 6.4 -15.4°
Sets 20:51:16 0° 20° (NNE) 3,243 7.1 -15.9°
